Regional Weather Roundup
Issued by NWS

Current Version | Previous Version | Text Only | Print | Product List | Glossary On
Versions: 1 2 3 4 5 6 7 8 9 10 11 12 13 14 15 16 17 18 19 20 21 22 23 24 25 26 27 28 29 30 31 32 33 34 35 36 37 38 39 40 41 42 43 44 45 46 47 48 49 50
000
ASUS44 KOUN 250000
RWROK

WEATHER ROUNDUP FOR OKLAHOMA
NATIONAL WEATHER SERVICE NORMAN OK
700 PM CDT FRI OCT 24 2014

NOTE: "FAIR" INDICATES FEW OR NO CLOUDS BELOW 12,000 FEET WITH NO
      SIGNIFICANT WEATHER AND/OR OBSTRUCTIONS TO VISIBILITY.

OKZ001>007-009>012-014-015-017-250100-
NORTHWEST OKLAHOMA AND THE PANHANDLE

CITY           SKY/WX    TMP DP  RH WIND       PRES   REMARKS
GAGE           PTCLDY    75  60  59 S8        30.03R
6HR MIN TEMP:  75; 6HR MAX TEMP:  88;

$$

OKZ016-021>023-033>039-044-045-250100-
SOUTHWEST OKLAHOMA

CITY           SKY/WX    TMP DP  RH WIND       PRES   REMARKS
LAWTON/REGL    PTCLDY    80  60  50 S8        30.02S
6HR MIN TEMP:  80; 6HR MAX TEMP:  88;

LAWTON/FT SILL PTCLDY    80  61  51 S10       30.01S
FREDERICK      CLEAR     82  58  43 S9        29.99S
CLINTON        PTCLDY    78  58  49 S8        30.05R
HOBART         PTCLDY    82  57  42 S10       30.02S
ALTUS AFB      CLEAR     81  58  46 S8        30.01S
$$

OKZ018>020-024>031-250100-
CENTRAL OKLAHOMA

CITY           SKY/WX    TMP DP  RH WIND       PRES   REMARKS
OKLAHOMA CITY  MOCLDY    75  61  61 S6        30.03R
6HR MIN TEMP:  75; 6HR MAX TEMP:  85;

OKC/WILEY POST CLEAR     74  61  63 S8        30.02S
OKC/TINKER AFB CLEAR     75  61  60 S5        30.03S
STILLWATER     CLEAR     74  62  66 S8        30.01S
GUTHRIE        CLEAR     75  63  66 S5        30.01S
$$

OKZ008-013-054>072-250100-
NORTHEAST OKLAHOMA

CITY           SKY/WX    TMP DP  RH WIND       PRES   REMARKS
TULSA          MOCLDY    75  63  66 S7        30.01S
6HR MIN TEMP:  75; 6HR MAX TEMP:  81;

TULSA/JONES    CLEAR     70  63  78 S3        30.02S
PONCA CITY     CLEAR     77  62  59 S3        30.00R
BARTLESVILLE   CLEAR     67  65  93 CALM      30.02S
MUSKOGEE       PTCLDY    70  60  70 SE6       30.06R
$$

OKZ032-040>043-046>053-073>077-250100-
SOUTH CENTRAL/SOUTHEAST OKLAHOMA

CITY           SKY/WX    TMP DP  RH WIND       PRES   REMARKS
MCALESTER      CLEAR     73  61  65 SE5       30.06S
$$




USA.gov is the U.S. government's official web portal to all federal, state and local government web resources and services.